{"data":{"norad_id":47263,"epoch":"2026-05-25T02:55:57.680832Z","epoch_age_seconds":67565,"freshness":"FRESH","line1":"1 47263U 20100F   26145.12219538  .00000314  00000+0  83822-3 0  9997","line2":"2 47263  87.8958 355.2369 0001757  84.9218 275.2111 13.12440607261505","mean_motion":13.12440607,"eccentricity":0.0001757,"inclination_deg":87.8958,"raan_deg":355.2369,"arg_perigee_deg":84.9218,"mean_anomaly_deg":275.2111,"bstar":0.00083822,"rev_number":26150,"period_min":109.71925070892,"perigee_km":1212.3986278339,"apogee_km":1215.066410783,"semimajor_km":7591.8695193085,"source":"CELESTRAK","updated_at":"2026-05-25T13:38:22.379759Z"}}